Wind_Speed
14 11 13 12 10 4 6 9 11 9 8 7 6 5 6 6 10 11 10 7 4 7 8 8 8 8 9 10 11 12 11 9 7 6 5 4 5 5 6 6 7 8 9 8
12 16 14 13 11 7 7 10 12 10 11 8 6 7 8 8 11 12 12 12 9 7 8 8 8 8 8 8 8 9 10 9 8 6 6 5 6 7 8 8 9 10 10 11
14 13 17 15 9 9 9 10 10 9 13 8 6 9 10 10 11 15 16 16 15 11 9 8 8 9 8 7 5 5 9 8 5 5 5 5 6 8 9 13 12 12 15 15
15 12 17 12 11 11 10 8 6 12 14 15 12 10 12 12 13 16 19 21 20 16 13 9 7 7 9 9 6 6 8 7 5 4 2 1 3 5 9 11 12 16 20 22
12 17 16 14 12 10 5 8 7 8 12 7 10 12 10 13 13 16 21 22 23 20 17 11 9 9 10 12 15 14 13 12 8 5 1 1 3 5 8 11 13 16 17 18
9 18 15 13 12 12 9 8 7 8 10 13 9 11 13 13 15 15 18 22 24 25 21 18 14 14 14 16 16 11 10 7 5 4 3 4 7 8 10 13 16 18 20 22
16 17 14 15 13 12 11 11 11 10 10 5 6 9 15 5 16 17 15 22 23 25 25 24 20 14 10 13 12 10 7 5 3 4 3 4 7 9 11 13 16 18 21 19
21 22 20 17 18 14 14 11 6 6 5 8 7 7 8 13 14 12 18 20 23 25 26 25 23 20 12 12 13 15 13 13 10 9 10 9 12 14 14 13 16 18 21 23
23 16 20 16 18 14 12 14 4 3 2 8 6 5 10 10 11 12 14 21 26 25 24 22 20 23 20 15 13 16 18 20 17 14 14 16 18 17 18 19 23 26 27 27
14 20 16 20 19 21 11 14 9 9 3 5 8 6 2 3 4 2 7 18 24 28 24 21 24 21 26 22 20 18 20 23 23 18 19 19 22 22 22 23 26 29 30 33
16 18 16 17 21 19 17 16 14 1 5 4 3 7 1 1 2 4 6 10 21 30 26 23 26 25 22 25 23 24 22 23 23 22 24 23 27 29 28 28 31 34 37 40
25 15 17 22 18 21 16 19 17 12 12 5 6 1 2 1 3 3 5 11 16 24 24 25 26 25 20 22 24 27 26 22 24 27 27 29 32 32 33 34 38 41 45 49
30 18 16 12 12 18 19 18 16 12 8 8 10 3 0 7 10 9 9 9 13 23 25 26 26 24 23 24 26 27 26 26 27 29 29 31 32 34 37 40 44 47 49 53
27 24 26 23 21 21 19 19 19 18 16 11 14 12 6 7 12 12 13 14 17 23 28 30 29 28 28 27 27 27 26 28 29 31 31 32 34 39 43 47 49 52 54 55
24 30 23 21 11 16 19 18 20 21 18 14 7 8 8 8 13 16 18 19 21 22 28 33 32 31 31 28 27 25 26 31 31 33 34 36 41 45 49 51 53 55 56 58
25 21 21 21 20 21 22 22 22 20 18 18 14 11 9 14 14 17 19 19 21 24 28 33 33 30 28 26 25 30 30 30 32 35 38 42 47 49 52 55 58 60 60 55
27 24 20 23 15 18 22 23 23 20 17 15 14 10 11 11 17 19 22 20 19 19 19 19 23 24 27 29 27 25 28 30 35 39 43 46 49 53 57 60 62 60 53 51
27 25 19 16 13 15 15 17 20 18 14 13 12 9 13 14 13 11 10 15 21 22 20 18 18 18 18 20 24 27 31 36 41 45 50 53 56 59 61 61 57 54 52 47
18 20 15 13 23 6 9 18 26 20 14 13 9 12 14 9 5 7 7 7 8 9 9 10 12 15 19 24 28 33 38 44 49 52 53 52 50 50 49 50 52 49 45 43
22 23 19 16 20 18 11 15 17 14 13 13 12 12 10 6 3 9 8 8 8 9 11 14 18 23 27 32 36 40 45 49 48 48 44 43 50 46 44 43 42 42 40 38
20 21 24 17 17 8 10 13 16 13 8 8 9 10 10 8 12 12 11 12 14 17 20 22 25 29 34 38 41 46 47 42 39 43 41 40 43 39 41 43 42 41 38 38
26 21 20 19 20 15 13 16 13 12 14 15 10 11 14 13 14 16 17 18 19 20 22 25 30 34 38 41 45 42 38 39 38 33 32 31 31 30 33 36 37 36 36 37
20 22 20 19 18 17 14 17 14 14 16 15 17 15 17 19 19 19 17 18 18 22 26 30 37 40 40 37 34 36 35 31 30 27 30 34 32 32 35 35 34 33 34 34
30 27 17 20 18 17 17 16 18 17 20 22 19 19 20 22 20 18 19 19 23 27 34 34 29 29 29 30 32 32 31 28 26 27 31 35 35 39 32 32 33 35 37 36
19 26 24 22 16 16 19 22 20 19 21 20 19 20 19 18 18 18 20 24 30 31 27 26 26 28 29 30 29 28 26 27 27 31 35 34 34 29 29 29 30 30 30 34
23 20 19 14 20 15 15 16 16 17 16 17 17 17 16 16 18 23 27 29 27 25 24 27 28 28 27 27 25 25 27 29 31 32 32 30 30 31 30 27 23 23 29 21
Wind_Direction
207 207 201 188 198 206 175 191 178 180 220 196 200 179 225 194 170 177 185 176 149 162 163 161 170 174 175 177 178 178 180 183 185 193 198 208 234 258 266 275 283 285 284 286
204 206 198 200 186 177 166 174 185 185 207 199 211 210 201 229 192 184 185 185 192 173 144 154 167 172 175 184 189 189 187 185 189 198 215 228 248 266 280 288 284 284 289 292
194 192 202 181 182 179 193 216 184 205 188 200 205 214 216 224 219 198 189 189 196 190 157 147 158 177 185 185 191 210 214 209 223 240 244 252 256 268 279 279 285 295 297 288
203 211 187 188 192 200 210 212 203 205 206 214 213 206 200 215 226 220 202 194 192 189 179 163 166 175 182 188 168 139 142 157 171 169 171 198 277 276 267 276 294 284 279 288
200 195 190 190 204 202 196 171 186 185 209 216 203 259 166 206 233 230 213 201 194 189 186 167 162 179 170 152 147 139 140 131 132 137 119 315 294 305 306 299 295 297 294 291
201 191 188 199 184 176 193 193 207 208 220 222 218 238 249 227 244 243 225 213 203 198 194 182 152 146 155 156 145 138 137 129 121 109 83 47 16 355 336 323 320 313 305 292
204 200 200 189 183 185 178 192 195 212 206 255 161 238 244 246 251 243 222 215 206 199 200 199 195 163 148 152 157 167 169 182 202 224 247 321 327 341 345 338 338 336 330 315
198 192 200 198 203 199 201 229 273 203 195 134 168 236 243 239 255 265 224 207 211 202 202 203 203 203 195 187 199 210 221 230 241 266 261 287 313 322 331 340 342 335 329 323
205 213 188 195 204 189 199 212 197 253 201 262 158 238 258 255 269 263 226 203 206 205 203 211 206 208 207 216 227 234 236 243 249 278 276 276 285 293 310 318 327 325 322 319
211 212 200 209 207 215 212 206 204 225 243 265 140 261 308 248 279 330 218 210 209 208 204 210 212 217 220 226 237 243 245 249 255 273 279 277 277 285 301 306 312 316 315 317
210 210 192 206 213 214 211 217 223 214 283 311 233 125 128 279 310 299 272 222 211 212 212 214 215 220 223 229 240 247 255 255 259 268 272 276 272 278 287 296 303 307 312 313
202 209 212 211 212 210 210 212 208 216 185 233 312 328 172 237 289 237 251 258 214 206 213 218 220 229 231 235 240 247 252 259 261 266 275 271 273 275 284 292 300 302 306 308
199 206 192 193 203 198 203 208 214 227 244 231 271 105 38 307 284 257 235 233 229 214 223 230 236 238 238 245 247 251 257 259 263 269 276 272 274 278 285 292 297 299 302 304
206 208 216 207 213 207 204 211 217 229 232 236 229 270 299 287 282 268 249 239 240 231 231 237 241 243 245 251 253 253 259 260 268 272 273 276 279 282 288 292 295 299 301 302
202 215 216 227 232 212 215 222 222 226 239 243 273 265 274 271 273 266 259 250 250 247 243 242 244 248 250 251 255 257 262 269 270 276 282 283 284 287 290 292 295 298 301 300
208 215 216 225 232 233 237 235 228 230 230 234 237 260 266 275 262 254 255 258 254 250 251 248 248 249 251 255 258 261 262 271 280 284 286 288 290 291 292 294 298 300 299 299
215 211 205 224 224 225 230 223 219 214 219 220 237 248 258 281 277 266 251 250 254 257 256 255 251 243 248 251 255 262 274 283 285 287 289 290 291 293 295 297 298 299 300 301
211 204 211 215 181 217 223 207 214 211 213 212 220 242 279 283 278 271 260 252 252 256 258 255 252 251 258 267 274 278 281 288 292 292 293 295 296 296 295 295 296 296 295 294
205 197 188 185 204 192 205 211 207 198 219 208 219 272 284 279 249 243 251 246 244 244 247 252 257 262 267 272 279 287 290 289 290 291 292 294 296 299 298 297 297 297 296 296
202 195 207 204 220 225 246 208 214 189 220 222 257 261 254 247 220 234 235 239 244 248 255 261 266 270 276 280 281 282 286 291 292 294 294 292 300 300 302 302 304 302 300 299
197 202 213 213 224 202 213 203 188 206 233 238 249 242 222 210 218 237 237 240 244 248 253 260 267 272 276 280 284 290 293 294 296 300 304 303 304 300 298 300 304 305 305 303
195 200 212 220 223 223 213 178 197 236 246 256 245 225 224 235 228 231 236 240 246 257 266 273 280 282 282 286 291 293 294 297 298 303 312 319 322 318 311 305 305 306 306 302
197 209 210 210 221 228 207 213 238 246 247 244 243 235 233 231 231 236 244 254 263 273 280 284 285 287 291 293 294 297 300 301 302 300 309 315 315 319 316 310 310 307 305 305
205 206 203 209 216 214 223 239 244 236 236 240 235 224 226 231 235 243 252 263 274 281 288 288 289 292 294 294 295 298 299 302 302 305 312 317 314 318 314 310 316 316 305 302
204 205 205 205 212 219 238 244 246 243 242 241 236 225 224 231 242 256 268 277 285 289 286 288 292 295 296 296 294 296 298 301 304 309 314 315 321 318 313 317 315 318 315 312
196 198 198 217 229 229 234 232 228 227 228 221 218 223 231 244 260 271 277 285 286 280 284 294 297 298 298 296 294 295 299 303 305 309 312 313 317 321 321 315 318 339 326 308
Height
3196 3201 3201 3203 3204 3203 3204 3205 3206 3209 3210 3213 3212 3215 3215 3217 3218 3219 3220 3222 3222 3223 3223 3223 3224 3225 3225 3226 3227 3228 3229 3231 3232 3232 3233 3233 3233 3233 3233 3233 3233 3232 3232 3231
3197 3198 3200 3200 3201 3202 3204 3205 3206 3209 3210 3212 3213 3215 3215 3215 3217 3219 3220 3221 3223 3224 3223 3224 3224 3225 3225 3226 3227 3228 3229 3230 3231 3232 3233 3233 3233 3232 3232 3232 3231 3230 3230 3229
3196 3197 3196 3199 3200 3202 3203 3203 3205 3206 3208 3210 3212 3213 3213 3214 3215 3218 3219 3220 3222 3224 3224 3224 3224 3225 3226 3226 3227 3227 3228 3230 3231 3231 3231 3231 3231 3231 3230 3229 3229 3228 3229 3227
3194 3194 3195 3198 3200 3201 3200 3203 3205 3206 3208 3205 3209 3204 3211 3213 3214 3215 3217 3218 3220 3222 3223 3223 3224 3224 3225 3226 3227 3227 3228 3229 3230 3230 3229 3229 3228 3228 3228 3227 3226 3225 3225 3224
3192 3192 3194 3196 3198 3200 3200 3202 3204 3205 3205 3205 3207 3206 3203 3209 3212 3213 3215 3216 3218 3220 3222 3223 3223 3223 3224 3226 3226 3227 3227 3228 3228 3228 3228 3228 3227 3226 3226 3225 3223 3222 3221 3220
3189 3189 3192 3195 3196 3198 3199 3202 3204 3205 3203 3203 3201 3205 3201 3204 3208 3209 3212 3214 3215 3217 3219 3221 3222 3222 3223 3224 3225 3226 3227 3227 3227 3227 3227 3226 3226 3225 3223 3221 3220 3217 3215 3213
3186 3188 3190 3191 3195 3196 3198 3199 3196 3199 3198 3196 3201 3204 3200 3202 3202 3203 3208 3211 3212 3214 3216 3218 3219 3221 3222 3223 3223 3224 3224 3225 3225 3225 3225 3225 3224 3223 3221 3219 3216 3214 3211 3211
3181 3184 3186 3188 3191 3193 3195 3194 3189 3193 3189 3190 3201 3199 3198 3199 3199 3199 3201 3207 3210 3211 3213 3215 3217 3218 3220 3221 3221 3221 3222 3222 3222 3223 3223 3222 3221 3220 3218 3215 3214 3212 3209 3206
3176 3178 3182 3185 3188 3191 3192 3194 3193 3193 3195 3194 3192 3197 3197 3197 3197 3196 3197 3201 3205 3207 3210 3212 3214 3215 3216 3217 3218 3219 3219 3219 3219 3220 3219 3218 3217 3215 3213 3211 3208 3205 3203 3200
3174 3176 3179 3181 3184 3187 3189 3191 3193 3192 3190 3190 3190 3195 3193 3196 3197 3195 3195 3197 3200 3203 3207 3209 3211 3212 3213 3214 3215 3215 3215 3215 3216 3216 3215 3213 3212 3210 3207 3205 3202 3199 3197 3193
3171 3173 3175 3178 3179 3181 3186 3187 3189 3188 3191 3184 3186 3188 3194 3196 3195 3195 3195 3195 3197 3200 3204 3206 3208 3209 3210 3211 3211 3212 3211 3212 3212 3211 3210 3208 3207 3204 3201 3198 3195 3192 3189 3185
3167 3170 3170 3173 3173 3177 3180 3181 3185 3185 3189 3189 3190 3189 3191 3193 3194 3195 3195 3194 3194 3198 3201 3203 3204 3204 3206 3207 3207 3207 3207 3208 3207 3206 3205 3203 3201 3198 3194 3190 3187 3183 3178 3175
3162 3164 3166 3171 3174 3174 3177 3179 3182 3183 3186 3185 3186 3184 3187 3190 3191 3192 3193 3193 3193 3195 3197 3198 3199 3201 3202 3202 3202 3203 3204 3203 3202 3200 3198 3196 3192 3189 3186 3183 3179 3174 3169 3165
3156 3159 3159 3159 3164 3168 3174 3175 3178 3181 3181 3179 3183 3184 3186 3187 3187 3188 3189 3190 3190 3191 3192 3193 3194 3196 3196 3197 3197 3198 3198 3196 3194 3193 3190 3188 3185 3181 3177 3173 3169 3164 3159 3153
3153 3154 3158 3158 3161 3164 3168 3171 3174 3176 3177 3177 3178 3181 3183 3182 3182 3183 3183 3185 3186 3186 3187 3187 3188 3190 3191 3191 3192 3192 3190 3188 3186 3184 3182 3179 3175 3171 3167 3162 3157 3153 3148 3142
3148 3152 3154 3156 3159 3162 3163 3166 3169 3171 3173 3175 3176 3178 3178 3176 3177 3178 3178 3178 3179 3180 3180 3180 3182 3184 3185 3185 3185 3183 3182 3180 3178 3176 3174 3170 3165 3160 3155 3150 3145 3140 3133 3127
3141 3145 3149 3151 3155 3158 3159 3160 3163 3165 3168 3171 3173 3174 3173 3173 3172 3171 3172 3172 3173 3173 3173 3174 3175 3177 3178 3176 3176 3177 3176 3173 3171 3168 3163 3158 3153 3148 3143 3137 3131 3125 3119 3114
3133 3138 3144 3145 3152 3153 3149 3154 3159 3162 3164 3166 3166 3167 3168 3167 3166 3166 3166 3166 3167 3167 3167 3169 3170 3171 3171 3171 3170 3170 3168 3165 3161 3156 3152 3147 3142 3135 3129 3122 3117 3111 3106 3101
3130 3134 3138 3142 3145 3145 3146 3148 3152 3156 3160 3161 3163 3162 3162 3162 3162 3162 3162 3162 3163 3163 3164 3165 3166 3167 3166 3165 3164 3162 3159 3155 3151 3146 3141 3136 3130 3122 3115 3109 3103 3098 3092 3088
3125 3129 3134 3136 3136 3138 3142 3145 3149 3153 3156 3156 3158 3158 3158 3158 3162 3160 3160 3161 3161 3161 3162 3162 3162 3162 3161 3158 3156 3154 3150 3145 3139 3133 3127 3123 3117 3110 3103 3097 3092 3087 3081 3076
3121 3125 3127 3130 3133 3136 3137 3142 3146 3152 3155 3151 3153 3154 3155 3156 3158 3157 3157 3158 3158 3158 3159 3159 3158 3156 3154 3150 3146 3142 3137 3131 3127 3122 3117 3111 3105 3099 3094 3087 3082 3077 3072 3067
3115 3121 3124 3127 3130 3131 3134 3140 3145 3146 3146 3148 3149 3150 3150 3151 3152 3153 3154 3154 3154 3155 3154 3153 3151 3148 3144 3140 3135 3130 3126 3122 3117 3113 3108 3102 3096 3091 3084 3078 3074 3068 3063 3058
3113 3115 3118 3125 3126 3127 3129 3134 3137 3140 3142 3143 3144 3145 3146 3147 3148 3149 3150 3150 3150 3149 3147 3144 3141 3137 3133 3129 3125 3120 3117 3113 3110 3106 3102 3096 3090 3084 3078 3071 3065 3059 3055 3050
3104 3109 3114 3119 3121 3124 3127 3130 3133 3134 3136 3138 3139 3140 3141 3142 3144 3145 3144 3144 3143 3141 3138 3135 3131 3128 3125 3122 3117 3113 3109 3105 3102 3098 3093 3087 3082 3076 3071 3065 3059 3052 3047 3041
3100 3105 3108 3112 3116 3120 3123 3125 3127 3129 3131 3132 3134 3135 3137 3138 3139 3139 3139 3138 3136 3133 3131 3127 3124 3120 3117 3114 3110 3105 3102 3098 3094 3091 3085 3080 3074 3069 3064 3060 3053 3046 3041 3033
3097 3100 3107 3111 3113 3116 3118 3120 3123 3125 3127 3129 3130 3132 3133 3134 3134 3134 3132 3130 3128 3125 3123 3119 3116 3113 3109 3105 3102 3099 3095 3091 3087 3083 3079 3073 3069 3064 3058 3052 3049 3044 3034 3028